Location: Paderno d�Adda
(45.6667°N, 9.4333°E)
Time: 14:29:32
(UTC+00:00)

ATLAS 3B R/B - Pass Details

Date: 19 September 2020
Orbit: 1016 x 1179 km, 63.8° (Epoch: 28 October)

Event Time Altitude Azimuth Distance (km) Brightness Sun altitude
Rises 20:35:13 0° 322° (NW) 3,829 6.7 -31.4°
Reaches altitude 10° 20:37:50 10° 325° (NW) 2,892 5.8 -31.7°
Enters shadow 20:44:10 68° 20° (NNE) 1,170 2.8 -32.6°
